Flag for Sao Tome and Principe Weather past 2 weeks in São Tomé, Sao Tome and Principe

Now
79 °F

Passing clouds.


Feels Like: 82 °F
Forecast: 78 / 81 °F
Wind: 2 mph from West

Location: S. Tome

Current Time: May 23, 2015 at 12:14:25 AM

Latest Report: May 22, 2015 at 11:00 PM


Visibility: N/A

Pressure: 29.92 "Hg

Humidity: 89%

Dew point: 75 °F

Location of São ToméLocation

Historic Weather in São Tomé — Graph

°F

São Tomé temperature yesterday

Maximum temperature yesterday: 84 °F (at 3:00 PM)
Minimum temperature yesterday: 73 °F (at 12:00 AM)
Average temperature yesterday: 79 °F

Past Weeks' High & Low Weather Summary

 TemperatureHumidityPressure
High90 °F (May 15, 12:00 PM)94% (May 8, 3:00 AM)29.98 "Hg (May 8, 3:00 AM)
Low73 °F (May 9, 7:00 AM)62% (May 17, 3:00 PM)29.80 "Hg (May 12, 3:00 PM)
Average81 °F82%29.88 "Hg
* Reported May 7 10:00 PM — May 22 10:00 PM, São Tomé, Weather by CustomWeather, © 2015

Note: Actual official high and low records may vary slightly from our data, if they occured in-between our weather recording intervals... More about our weather records

Advertising

São Tomé weather history for previous 24 hours

 ConditionsComfort  
Time TempWeatherWind HumidityBarometerVisibility
10:00 PM
Fri, May 22
81 °FPassing clouds.No wind84%29.92 "HgN/A
8:00 PM81 °FPassing clouds.2 mph84%29.92 "HgN/A
7:00 PM82 °FPassing clouds.2 mph79%29.92 "HgN/A
6:00 PM82 °FPassing clouds.5 mph79%29.92 "HgN/A
4:00 PM84 °FScattered clouds.5 mph79%29.89 "HgN/A
3:00 PM84 °FScattered clouds.2 mph79%29.89 "HgN/A
2:00 PM82 °FPartly sunny.2 mph74%29.92 "HgN/A
1:00 PM81 °FPartly sunny.7 mph79%29.89 "HgN/A
12:00 PM81 °FPartly sunny.6 mph79%29.89 "HgN/A
11:00 AM81 °FPartly sunny.7 mph84%29.92 "HgN/A
10:00 AM79 °FPartly sunny.7 mph79%29.95 "HgN/A
8:00 AM77 °FScattered clouds.No wind83%29.95 "HgN/A
7:00 AM75 °FPartly sunny.2 mph89%29.92 "HgN/A
6:00 AM73 °FPartly sunny.7 mph94%29.92 "HgN/A
5:00 AM73 °FPassing clouds.9 mph94%29.92 "HgN/A
4:00 AM73 °FPassing clouds.7 mph94%29.89 "HgN/A
12:00 AM73 °FPassing clouds.2 mph94%29.86 "HgN/A
Weather by CustomWeather, © 2015

See weather overviewHow to use our weather pages